This is the latest recevied weather packets stored in our database for station/object CX2SA-13. If no packets are shown the sender has not sent any weather packets the latest 10 day(s).
| Time | Temp. | Humidity | Pressure | Rain* | Wind** | Luminosity | Snow |
|---|---|---|---|---|---|---|---|
| 1777841085 | 18.33° C | 49% | 1014.5 hPa | 0 mm | - | - | - |
| 1777840186 | 18.89° C | 48% | 1014.5 hPa | 0 mm | - | - | - |
| 1777839284 | 18.89° C | 47% | 1014.5 hPa | 0 mm | - | - | - |
| 1777838385 | 19.44° C | 47% | 1014.2 hPa | 0 mm | - | - | - |
| 1777837484 | 19.44° C | 47% | 1014.5 hPa | 0 mm | - | - | - |
| 1777836585 | 19.44° C | 48% | 1014.5 hPa | 0 mm | - | - | - |
| 1777835686 | 19.44° C | 50% | 1014.5 hPa | 0 mm | - | - | - |
| 1777834784 | 19.44° C | 49% | 1014.9 hPa | 0 mm | - | - | - |
| 1777833885 | 20° C | 47% | 1015.2 hPa | 0 mm | - | - | - |
| 1777832984 | 20° C | 47% | 1015.9 hPa | 0 mm | - | - | - |
| 1777832084 | 20° C | 47% | 1016.2 hPa | 0 mm | - | - | - |
| 1777831185 | 19.44° C | 47% | 1016.2 hPa | 0 mm | - | - | - |
| 1777830284 | 20.56° C | 48% | 1016.5 hPa | 0 mm | - | - | - |
| 1777829385 | 19.44° C | 49% | 1016.9 hPa | 0 mm | - | - | - |
| 1777828485 | 19.44° C | 50% | 1017.2 hPa | 0 mm | - | - | - |
| 1777827584 | 19.44° C | 49% | 1018.2 hPa | 0 mm | - | - | - |
| 1777826685 | 18.89° C | 49% | 1018.2 hPa | 0 mm | - | - | - |
| 1777825786 | 18.89° C | 49% | 1018.6 hPa | 0 mm | - | - | - |
| 1777824884 | 18.33° C | 49% | 1019.3 hPa | 0 mm | - | - | - |
| 1777823985 | 18.33° C | 50% | 1019.3 hPa | 0 mm | - | - | - |
| 1777823084 | 17.78° C | 51% | 1019.3 hPa | 0 mm | - | - | - |
| 1777822185 | 17.78° C | 46% | 1019.6 hPa | 0 mm | - | - | - |
| 1777821285 | 17.22° C | 51% | 1019.6 hPa | 0 mm | - | - | - |
| 1777820384 | 16.67° C | 52% | 1019.6 hPa | 0 mm | - | - | - |
| 1777819485 | 16.11° C | 53% | 1020.3 hPa | 0 mm | - | - | - |
* Rain since midnight (hover to see other rain measurements)
** Current wind speed in m/s (hover to see current wind gust speed)